Temperature
33 33 32 32 33 33 33 32 32 33 34 33 33 32 32 32 32 31 30 29 28 27 26 25 24 23 22 22 21 21 20 20 20 20 20 20 19 19 19 19 19 19 19 19
33 32 33 34 34 34 34 33 33 33 34 34 33 32 32 33 32 31 31 30 28 27 26 25 24 24 23 22 21 21 21 20 20 20 20 20 20 20 19 19 19 19 19 19
32 33 34 34 34 34 34 34 34 33 34 34 32 31 31 32 33 32 31 30 29 28 27 25 25 24 23 22 21 21 21 21 20 20 20 20 20 20 20 19 19 19 19 19
33 34 35 34 34 34 33 35 35 34 33 32 32 30 31 32 32 33 32 31 30 29 27 26 25 24 24 23 22 21 21 21 21 20 20 20 20 20 20 20 19 19 19 19
33 34 34 34 34 35 34 35 34 34 33 32 32 31 31 32 32 32 32 32 31 30 28 27 26 25 24 23 22 22 21 21 21 20 20 20 20 20 20 20 20 19 19 19
34 35 35 35 35 35 35 34 33 33 32 30 31 31 31 32 33 33 33 32 31 30 29 27 26 25 25 24 23 22 21 21 21 21 20 20 20 20 20 20 20 20 19 19
32 34 35 35 34 35 34 32 30 30 29 29 31 32 32 33 34 34 33 32 31 31 29 28 27 26 25 24 23 22 22 21 21 21 20 20 20 20 20 20 20 20 20 19
31 32 34 35 34 34 34 33 30 29 29 30 31 31 33 34 34 33 33 32 31 30 30 29 27 26 25 24 24 23 22 22 21 21 21 20 20 20 20 20 20 20 20 20
32 32 34 35 35 34 33 33 34 32 30 30 31 31 33 34 33 33 33 32 31 30 30 29 28 26 26 25 24 23 23 22 21 21 21 21 21 20 20 20 20 20 20 20
32 31 33 35 35 34 34 34 33 32 30 29 30 30 31 31 32 33 33 32 31 30 30 29 28 27 26 25 24 24 23 22 21 21 21 21 21 21 20 20 20 20 20 20
33 31 32 33 33 33 33 33 33 32 31 30 29 30 32 31 31 33 32 32 31 30 29 28 28 27 26 25 25 24 23 22 21 21 21 21 21 21 20 20 20 20 20 20
32 31 31 32 34 34 34 33 33 31 30 30 30 29 32 32 32 32 32 31 31 30 29 28 27 26 26 25 24 24 23 22 21 21 21 21 21 21 20 20 20 20 20 20
30 30 29 30 32 33 33 33 34 33 32 31 30 29 32 32 32 32 31 30 30 29 29 28 27 26 25 25 24 24 23 22 22 21 21 21 21 20 20 20 20 20 20 20
29 29 29 29 30 31 31 32 33 32 31 31 30 30 31 31 31 31 30 29 29 28 27 27 27 26 25 24 24 24 23 22 22 22 21 21 21 21 20 20 20 20 20 20
29 28 29 29 31 31 31 31 32 32 32 31 30 30 30 30 30 30 29 29 28 27 27 26 26 25 25 24 23 23 23 22 22 22 21 21 21 21 20 20 20 20 20 20
28 27 28 28 30 30 30 31 31 31 31 31 30 30 30 30 29 29 28 28 27 26 26 25 25 24 24 23 23 22 22 22 22 21 21 21 20 20 20 20 20 20 20 20
27 26 26 27 29 29 29 30 31 31 31 31 30 30 29 29 28 28 28 27 26 25 25 24 24 23 23 23 23 22 22 22 21 21 21 21 20 20 20 20 20 20 20 20
26 25 25 26 27 26 29 31 31 31 31 31 30 30 29 28 27 27 27 26 25 25 24 23 23 23 23 23 22 22 22 21 21 21 21 20 20 20 20 20 19 19 19 19
26 25 25 25 26 27 29 30 30 30 29 30 29 29 28 27 27 26 25 25 24 24 23 23 23 23 22 22 22 21 21 21 20 20 20 20 20 20 20 19 19 19 19 19
26 25 24 25 25 26 27 29 30 29 27 28 28 27 27 27 27 26 24 24 24 23 23 23 22 22 22 21 21 21 21 21 20 20 20 20 20 20 19 19 19 19 18 18
25 24 24 24 24 26 27 28 28 27 25 26 26 25 25 25 24 23 23 23 22 22 22 22 21 21 21 21 21 20 20 20 20 20 19 19 19 19 19 19 19 18 18 18
24 24 24 24 24 24 25 26 25 24 24 24 24 24 23 23 22 22 22 21 21 21 21 21 21 20 20 20 20 20 20 19 19 19 19 18 18 18 18 18 18 18 17 17
24 24 24 24 23 23 23 23 23 23 23 23 23 23 22 22 21 21 20 20 20 20 20 20 20 20 19 19 19 19 19 19 18 18 18 18 18 18 18 17 17 17 17 17
23 23 23 22 23 23 23 22 22 22 22 22 22 22 22 21 21 20 20 19 19 19 20 20 19 19 19 18 18 18 18 18 18 18 17 17 17 17 17 17 17 17 16 16
21 21 21 21 21 22 21 21 21 21 21 21 21 21 21 20 20 19 19 19 19 19 19 19 18 18 18 18 18 18 18 17 17 17 17 17 17 16 16 16 16 16 16 16
20 20 20 20 20 20 20 20 20 20 20 20 20 20 20 20 19 19 18 18 18 18 18 18 18 17 17 17 17 17 17 17 17 16 16 16 16 16 16 16 16 16 16 16
Wind_Speed
14 12 10 11 14 14 10 7 6 5 6 6 6 7 9 11 10 11 12 13 13 13 13 12 12 13 12 11 9 8 7 6 4 4 3 3 3 3 3 3 4 4 3 3
14 14 15 15 14 12 10 7 6 5 6 5 5 5 7 10 11 11 12 13 14 14 14 13 12 13 13 12 10 9 8 7 5 4 3 3 3 3 3 3 4 4 4 4
17 14 15 15 13 12 10 9 6 4 4 4 3 5 7 8 9 11 12 14 14 15 16 15 14 13 14 13 12 11 9 8 7 5 4 3 3 2 2 4 4 3 4 4
16 16 16 14 12 11 9 9 7 6 7 5 5 5 7 10 11 12 12 13 14 15 16 16 15 14 13 14 13 10 10 9 8 6 5 4 4 3 3 3 3 4 4 4
16 16 15 13 11 10 9 9 8 8 9 7 8 6 6 10 11 11 12 12 14 15 16 17 16 14 14 14 14 12 10 9 8 7 6 4 3 3 2 3 4 4 4 4
18 16 15 14 12 10 9 10 9 8 7 9 11 9 6 7 10 11 12 12 13 15 16 17 16 15 14 14 14 14 12 10 9 8 6 5 4 3 2 2 3 4 3 4
18 18 16 13 13 12 11 10 7 8 7 9 11 8 5 7 8 10 11 11 11 14 15 16 16 16 14 14 14 14 13 11 10 9 7 6 5 5 4 3 4 4 3 3
15 15 16 14 13 12 12 12 10 9 8 9 9 7 4 7 7 7 9 11 12 12 14 16 16 16 14 14 14 14 14 12 11 10 8 6 6 5 4 4 3 3 2 2
12 14 14 14 13 13 14 13 13 11 11 10 7 4 4 5 8 8 9 10 11 11 12 15 16 17 16 15 13 13 14 12 11 10 8 7 7 5 4 4 4 2 2 3
13 12 13 13 12 15 16 13 10 10 9 9 7 6 4 5 7 8 8 9 11 11 11 13 14 15 15 14 13 13 13 12 10 10 9 8 7 6 4 4 3 3 2 1
14 13 13 13 14 14 14 15 12 9 9 10 9 5 3 5 5 7 8 8 10 10 11 10 10 12 13 13 14 13 12 12 10 9 8 6 7 6 6 4 3 3 2 2
10 11 13 14 14 14 15 16 15 11 9 9 9 6 4 4 5 5 6 6 8 9 10 11 11 11 11 12 12 12 12 12 11 9 8 7 7 6 6 5 4 4 4 3
6 8 11 13 12 13 14 14 14 14 11 11 11 7 4 1 3 4 6 6 7 7 8 9 10 10 9 9 9 10 10 11 11 10 9 8 7 7 6 5 5 5 5 4
5 10 13 14 11 10 13 15 14 14 10 12 9 7 5 2 2 3 5 6 7 8 7 7 8 9 8 8 7 7 8 8 9 9 9 8 8 7 6 5 5 5 5 5
7 12 14 17 17 15 15 15 15 15 14 13 9 8 5 3 2 3 5 6 7 6 6 6 6 7 8 8 7 7 6 6 6 7 7 7 7 7 6 6 5 5 5 6
7 9 12 16 18 16 17 16 16 16 14 13 10 7 2 1 1 3 4 5 5 5 5 5 5 7 7 7 7 6 6 6 6 6 7 6 6 6 6 6 5 5 4 4
8 8 11 14 16 16 18 17 16 14 13 12 10 6 3 2 0 3 4 4 5 5 4 4 3 4 6 7 6 7 6 5 5 5 5 5 5 5 5 6 5 5 5 5
9 8 8 12 14 18 13 11 10 10 8 7 4 4 3 3 2 2 3 4 4 4 4 4 3 4 5 7 7 7 6 5 5 5 5 5 5 4 4 4 4 4 4 4
10 9 9 10 15 16 12 9 9 8 6 3 2 3 3 2 2 2 4 4 3 4 4 3 3 3 4 4 6 6 5 5 4 5 4 4 5 5 4 4 4 3 3 3
12 10 10 11 14 14 7 6 6 5 5 1 1 2 2 2 3 2 5 5 5 5 4 3 3 2 3 3 4 5 4 4 4 4 4 4 4 4 4 4 3 3 3 3
13 13 15 15 15 11 6 7 7 8 2 4 4 4 2 2 3 3 4 4 4 3 4 4 3 2 2 2 3 3 2 3 3 3 3 4 4 4 4 4 3 3 3 3
12 12 13 14 15 9 6 4 3 3 5 5 4 3 4 4 4 3 3 4 3 3 3 3 3 3 3 3 3 2 1 1 2 2 2 3 3 4 4 3 3 3 3 4
8 6 6 5 4 1 5 4 4 4 4 3 3 2 3 2 1 1 2 3 2 1 2 2 2 2 3 3 2 2 1 1 1 2 3 3 3 3 3 4 4 3 3 4
7 4 5 4 3 1 2 3 4 4 3 3 3 1 1 1 1 0 0 1 2 1 1 1 2 1 2 2 2 2 2 1 1 2 2 2 3 3 3 2 3 3 3 3
7 6 5 6 6 5 3 3 3 4 4 3 3 3 2 1 1 1 0 1 1 1 1 1 1 1 1 2 2 1 1 1 1 1 2 3 3 3 3 2 0 1 0 1
8 7 7 6 5 6 6 5 3 3 4 4 4 3 3 2 2 1 1 0 1 1 0 0 1 1 1 1 1 1 1 2 1 1 2 3 3 3 3 3 2 5 3 2
Wind_Direction
229 231 233 227 233 239 236 224 228 211 194 194 173 164 179 175 176 171 169 169 171 169 166 161 161 156 149 145 143 144 147 143 148 156 166 172 163 162 159 156 151 155 167 161
232 232 240 238 246 252 253 249 247 225 195 203 188 184 193 189 182 178 176 172 172 169 165 162 165 162 158 152 151 152 157 155 161 162 169 171 169 167 164 151 141 161 170 179
231 235 236 241 246 251 253 254 246 252 246 245 245 222 199 202 189 181 180 174 173 173 169 167 171 170 164 160 163 166 161 161 168 170 167 176 163 179 152 148 157 174 180 186
237 244 244 239 246 255 259 267 264 255 257 248 239 245 212 200 195 187 183 177 175 173 169 172 175 175 169 165 166 160 158 161 166 176 175 182 173 179 171 163 162 170 179 190
242 239 246 246 249 253 260 270 274 268 263 260 244 245 216 198 192 185 185 184 179 174 171 173 176 173 172 168 167 163 159 162 166 178 182 188 189 188 179 166 165 173 187 194
250 247 246 246 248 249 254 261 269 270 272 263 261 252 220 204 188 182 183 183 180 174 171 170 172 170 172 169 167 166 161 165 170 179 182 185 192 199 201 198 181 189 191 196
245 245 242 240 245 240 239 243 252 250 249 252 259 256 205 186 182 180 174 176 178 172 171 168 168 169 171 171 170 166 162 168 174 180 186 182 190 204 204 216 213 206 201 193
236 239 237 232 235 243 239 239 239 247 247 252 244 242 206 165 159 159 165 169 172 174 171 168 167 167 172 173 169 164 165 171 177 182 186 184 186 202 202 209 226 214 210 183
243 243 239 231 227 237 245 244 249 256 258 265 262 240 194 156 157 159 165 164 169 175 172 168 167 169 173 174 170 167 165 171 178 181 180 186 189 201 205 195 213 221 207 192
256 261 247 228 224 227 242 251 255 252 264 268 252 250 224 187 172 164 168 167 167 172 169 168 167 169 171 172 168 165 164 170 175 180 184 188 188 193 199 206 202 203 207 198
252 258 256 240 225 230 232 243 250 257 259 264 263 259 217 193 192 174 168 166 164 166 161 158 161 164 165 167 169 168 165 167 174 179 179 178 177 186 197 202 197 200 205 194
256 258 259 252 242 237 242 241 243 248 252 261 265 265 259 190 174 160 148 149 156 156 157 156 155 153 159 165 168 168 169 171 176 177 175 179 179 186 195 194 196 199 202 201
273 259 254 248 244 232 241 246 247 252 253 252 252 239 237 144 120 121 124 128 131 133 143 144 147 150 156 160 161 165 171 174 177 176 178 181 185 191 197 199 200 196 194 198
265 257 257 254 256 255 248 252 253 253 254 254 250 231 225 130 112 116 118 133 140 137 131 137 141 147 151 152 152 163 172 171 175 175 180 183 188 192 197 203 200 192 189 192
251 254 260 268 270 267 260 256 256 253 257 259 245 229 216 173 127 95 113 124 122 123 131 128 137 138 143 148 154 163 166 169 176 177 184 186 187 189 192 197 194 188 193 199
239 261 266 264 264 267 267 261 257 255 251 255 255 255 191 101 137 102 99 105 120 122 120 127 133 134 143 148 156 159 165 171 175 180 185 181 181 191 194 191 187 184 189 196
252 258 265 262 262 263 254 253 251 250 248 245 238 225 167 171 57 93 98 108 117 118 113 106 109 133 147 151 153 160 166 171 172 173 174 173 180 188 193 195 185 187 192 196
252 264 258 260 262 253 250 254 257 254 262 262 237 184 156 147 114 95 90 98 106 113 111 119 140 147 152 158 164 163 169 169 169 170 176 175 179 183 181 184 186 193 193 194
233 239 251 254 251 252 251 250 251 252 257 278 240 189 158 140 144 101 75 73 87 113 116 125 135 146 152 164 161 152 157 166 172 177 182 178 177 182 185 182 186 193 192 199
218 221 239 249 255 253 248 277 283 261 231 55 80 102 113 166 222 138 73 64 70 76 92 105 110 106 127 147 152 153 163 172 183 186 186 179 176 181 186 184 184 186 195 205
212 215 228 242 250 258 283 293 282 248 230 74 72 77 88 25 33 57 51 51 58 71 80 83 89 80 81 109 129 149 163 183 187 182 174 173 178 187 187 180 181 186 196 198
232 227 228 237 245 248 345 315 297 39 60 63 62 62 56 62 61 56 44 41 42 73 81 93 90 86 79 86 106 124 121 121 154 157 167 174 177 202 191 172 185 190 194 195
248 255 248 246 244 66 19 21 23 48 52 48 39 53 81 87 77 47 38 33 11 43 61 92 106 99 95 100 120 129 102 94 131 162 172 184 185 183 176 179 187 191 196 202
267 288 269 277 229 248 340 340 352 9 14 8 353 334 130 168 215 277 24 8 342 339 41 85 120 122 112 110 113 115 109 101 134 157 174 177 168 169 158 171 193 199 206 212
286 293 272 263 275 289 284 323 341 344 343 334 319 311 283 228 246 264 297 324 313 299 17 59 94 113 120 123 126 122 115 116 152 174 194 201 195 180 162 151 53 187 229 212
274 273 264 263 283 294 302 309 304 309 306 304 304 313 309 300 260 252 253 314 304 265 206 173 186 196 193 158 131 109 113 129 156 208 211 219 212 190 175 150 97 47 55 70
Height
1459 1462 1465 1463 1459 1456 1456 1462 1464 1459 1453 1456 1461 1464 1465 1468 1471 1475 1480 1485 1489 1494 1498 1501 1504 1507 1509 1511 1513 1515 1517 1518 1520 1521 1523 1525 1526 1527 1529 1530 1531 1531 1532 1534
1459 1462 1456 1451 1449 1449 1451 1457 1459 1454 1448 1453 1459 1462 1462 1463 1466 1471 1475 1480 1485 1491 1495 1499 1502 1505 1508 1510 1512 1514 1516 1518 1519 1521 1523 1524 1526 1527 1528 1530 1530 1531 1532 1533
1458 1454 1448 1448 1449 1450 1450 1453 1454 1455 1450 1450 1460 1467 1464 1461 1463 1466 1471 1475 1481 1486 1491 1496 1500 1503 1506 1508 1510 1512 1514 1516 1519 1520 1522 1524 1526 1527 1528 1529 1530 1531 1532 1533
1450 1447 1445 1446 1447 1447 1455 1445 1446 1451 1458 1465 1464 1483 1469 1461 1461 1463 1467 1471 1476 1481 1487 1492 1496 1500 1503 1506 1508 1511 1513 1515 1517 1519 1521 1523 1525 1526 1528 1528 1529 1530 1531 1532
1448 1444 1444 1447 1445 1444 1448 1443 1446 1450 1456 1465 1463 1473 1469 1457 1461 1460 1462 1467 1471 1477 1482 1488 1492 1497 1501 1504 1507 1509 1511 1514 1516 1518 1520 1522 1524 1525 1527 1528 1529 1530 1531 1532
1442 1439 1438 1440 1439 1440 1442 1446 1449 1452 1461 1480 1468 1469 1471 1456 1454 1454 1458 1463 1467 1473 1478 1484 1489 1494 1498 1502 1505 1507 1509 1512 1515 1517 1519 1521 1522 1524 1526 1527 1528 1529 1530 1531
1447 1439 1435 1436 1441 1441 1443 1458 1476 1483 1486 1483 1460 1462 1459 1446 1444 1447 1453 1459 1464 1469 1475 1480 1486 1491 1495 1499 1502 1505 1507 1510 1513 1515 1517 1519 1521 1522 1524 1525 1526 1528 1529 1529
1455 1453 1436 1433 1439 1444 1444 1452 1476 1491 1493 1478 1461 1465 1450 1439 1442 1446 1451 1456 1462 1467 1472 1477 1482 1487 1492 1496 1500 1503 1505 1507 1510 1513 1515 1517 1519 1521 1522 1523 1525 1526 1527 1528
1449 1449 1431 1429 1431 1437 1445 1447 1444 1460 1470 1477 1468 1456 1446 1438 1441 1446 1450 1454 1460 1465 1469 1474 1479 1484 1489 1493 1497 1500 1502 1505 1508 1511 1513 1515 1517 1519 1521 1522 1523 1524 1526 1527
1439 1448 1434 1428 1431 1433 1436 1439 1447 1458 1478 1485 1475 1467 1460 1449 1446 1446 1449 1453 1458 1463 1467 1471 1476 1481 1486 1490 1494 1498 1500 1503 1506 1509 1511 1513 1515 1517 1518 1520 1521 1522 1524 1525
1435 1446 1440 1432 1436 1439 1439 1442 1444 1449 1457 1475 1484 1471 1444 1446 1446 1445 1448 1451 1456 1460 1465 1470 1474 1479 1483 1488 1492 1495 1498 1501 1504 1506 1509 1511 1513 1515 1516 1518 1519 1520 1521 1523
1436 1441 1446 1437 1426 1426 1431 1435 1440 1457 1462 1460 1469 1470 1440 1440 1442 1444 1447 1451 1454 1459 1463 1467 1472 1476 1481 1485 1489 1493 1496 1498 1501 1504 1507 1509 1511 1513 1514 1515 1516 1518 1519 1520
1442 1447 1457 1452 1441 1432 1433 1431 1432 1436 1446 1456 1465 1467 1440 1440 1442 1445 1448 1452 1456 1459 1462 1466 1470 1475 1479 1483 1487 1490 1494 1497 1499 1502 1504 1507 1508 1510 1511 1513 1514 1515 1516 1518
1445 1448 1454 1459 1448 1439 1440 1436 1433 1438 1449 1454 1454 1457 1446 1444 1446 1448 1451 1454 1457 1460 1463 1466 1470 1474 1478 1481 1485 1488 1492 1495 1498 1500 1502 1504 1506 1508 1509 1510 1511 1512 1514 1515
1444 1450 1448 1443 1437 1436 1436 1436 1435 1438 1440 1447 1449 1448 1446 1446 1447 1450 1452 1455 1458 1461 1463 1466 1470 1473 1477 1480 1484 1487 1490 1493 1496 1498 1500 1502 1504 1505 1507 1508 1509 1510 1511 1512
1445 1451 1450 1449 1440 1437 1438 1434 1433 1434 1435 1439 1442 1446 1442 1446 1449 1451 1454 1457 1459 1462 1464 1467 1470 1472 1475 1479 1482 1486 1488 1491 1494 1496 1498 1500 1501 1503 1504 1505 1506 1507 1509 1510
1447 1453 1458 1455 1443 1441 1446 1434 1432 1433 1431 1434 1443 1444 1443 1446 1449 1452 1455 1458 1460 1462 1465 1467 1469 1472 1475 1477 1480 1483 1486 1489 1491 1493 1495 1497 1499 1500 1501 1502 1503 1504 1505 1506
1452 1456 1457 1456 1454 1462 1438 1425 1425 1428 1430 1429 1434 1439 1443 1447 1451 1454 1456 1458 1461 1464 1466 1468 1470 1472 1474 1476 1479 1481 1484 1486 1489 1491 1492 1494 1495 1497 1498 1499 1500 1501 1502 1502
1448 1455 1458 1457 1456 1449 1434 1427 1426 1431 1436 1433 1435 1439 1444 1447 1451 1454 1457 1459 1461 1464 1466 1467 1469 1471 1473 1475 1477 1478 1481 1484 1486 1488 1490 1491 1492 1493 1494 1495 1496 1497 1498 1499
1445 1450 1457 1456 1461 1456 1441 1429 1427 1432 1442 1439 1440 1443 1446 1448 1452 1457 1459 1460 1461 1464 1465 1467 1469 1471 1472 1474 1475 1476 1479 1481 1483 1485 1486 1488 1489 1490 1491 1492 1493 1494 1495 1496
1447 1450 1455 1456 1457 1446 1436 1432 1431 1445 1449 1443 1445 1447 1450 1453 1456 1459 1460 1461 1462 1464 1465 1467 1469 1470 1471 1471 1473 1475 1477 1479 1481 1483 1484 1485 1486 1487 1488 1489 1490 1491 1492 1493
1443 1446 1450 1450 1455 1453 1440 1437 1442 1446 1445 1446 1448 1450 1453 1455 1457 1459 1460 1462 1463 1463 1465 1466 1467 1469 1470 1470 1471 1473 1474 1477 1478 1480 1481 1482 1483 1484 1485 1486 1487 1488 1489 1490
1440 1440 1441 1445 1449 1446 1445 1445 1447 1446 1448 1449 1450 1452 1454 1456 1457 1459 1460 1461 1462 1463 1464 1465 1466 1468 1469 1469 1470 1471 1472 1474 1475 1476 1477 1479 1480 1481 1482 1483 1484 1485 1486 1487
1441 1440 1442 1445 1444 1444 1446 1446 1447 1448 1450 1451 1452 1453 1454 1456 1457 1459 1460 1461 1462 1463 1464 1464 1465 1466 1467 1468 1469 1469 1470 1471 1472 1473 1474 1475 1477 1478 1479 1480 1481 1482 1483 1484
1447 1445 1445 1447 1446 1446 1447 1448 1448 1450 1450 1451 1453 1453 1454 1455 1457 1458 1459 1460 1461 1462 1462 1463 1464 1464 1465 1466 1467 1468 1468 1469 1470 1470 1471 1473 1474 1474 1475 1477 1478 1479 1480 1481
1447 1448 1449 1449 1449 1450 1449 1449 1450 1450 1451 1452 1453 1453 1453 1454 1456 1457 1458 1459 1459 1460 1460 1461 1462 1463 1463 1464 1465 1465 1466 1466 1467 1468 1469 1470 1471 1472 1472 1473 1475 1476 1477 1478